When you browse on this site, cookies collect data to enhance your experience and personalize the content and advertising you see.
Visit our Privacy Policy to learn more. By continuing to use the site, you agree to this use of cookies and data.
  • In Österreich
  • Länderverzeichnis
  • Für 7 Tage
  • Wassertemperatur
  • Satellitenkarten
  • Wetterkarte
  • News
  • Widgets
  • user-avatar
    Anmelden

    Stündliche Wetter Kalinovka

    Heute, 16 Juli, Dienstag

    Zeit Temperatur Niederschläge Wind Luftdruck Luftfeuchtigkeit
    00:00 +13°C° 0 mm 1 m/S 732 mmHg 89%
    01:00 +13°C° 0 mm 1 m/S 732 mmHg 89%
    02:00 +13°C° 0 mm 1 m/S 732 mmHg 89%
    03:00 +12°C° 0 mm 2 m/S 732 mmHg 90%
    04:00 +12°C° 0 mm 2 m/S 732 mmHg 91%
    05:00 +12°C° 0 mm 2 m/S 732 mmHg 92%
    06:00 +14°C° 0 mm 2 m/S 732 mmHg 87%
    07:00 +16°C° 0 mm 2 m/S 732 mmHg 82%
    08:00 +17°C° 0 mm 2 m/S 732 mmHg 77%
    09:00 +19°C° 0 mm 3 m/S 732 mmHg 71%
    10:00 +20°C° 0 mm 3 m/S 732 mmHg 65%
    11:00 +21°C° 0 mm 3 m/S 732 mmHg 60%
    12:00 +22°C° 0 mm 3 m/S 732 mmHg 57%
    13:00 +22°C° 0 mm 3 m/S 732 mmHg 55%
    14:00 +24°C° 0 mm 3 m/S 732 mmHg 53%
    15:00 +22°C° 0 mm 3 m/S 731 mmHg 54%
    16:00 +22°C° 0 mm 3 m/S 731 mmHg 55%
    17:00 +22°C° 0 mm 3 m/S 731 mmHg 57%
    18:00 +20°C° 0 mm 2 m/S 731 mmHg 63%
    19:00 +19°C° 0 mm 2 m/S 731 mmHg 70%
    20:00 +17°C° 0 mm 2 m/S 731 mmHg 77%
    21:00 +16°C° 0 mm 2 m/S 731 mmHg 80%
    22:00 +16°C° 0 mm 2 m/S 731 mmHg 83%
    23:00 +15°C° 0 mm 2 m/S 731 mmHg 87%

    Morgen, 17 Juli, Mittwoch

    Zeit Temperatur Niederschläge Wind Luftdruck Luftfeuchtigkeit
    00:00 +14°C° 0 mm 2 m/S 731 mmHg 88%
    01:00 +13°C° 0 mm 3 m/S 731 mmHg 90%
    02:00 +12°C° 0 mm 3 m/S 731 mmHg 92%
    03:00 +13°C° 0.1 mm 3 m/S 731 mmHg 92%
    04:00 +13°C° 0.1 mm 3 m/S 731 mmHg 93%
    05:00 +13°C° 0.1 mm 3 m/S 731 mmHg 93%
    06:00 +14°C° 0 mm 3 m/S 731 mmHg 88%
    07:00 +15°C° 0 mm 4 m/S 731 mmHg 82%
    08:00 +17°C° 0 mm 4 m/S 731 mmHg 77%
    09:00 +18°C° 0.1 mm 4 m/S 731 mmHg 74%
    10:00 +19°C° 0.1 mm 4 m/S 731 mmHg 71%
    11:00 +20°C° 0.1 mm 5 m/S 731 mmHg 68%
    12:00 +20°C° 0.5 mm 4 m/S 731 mmHg 67%
    13:00 +20°C° 0.5 mm 4 m/S 731 mmHg 66%
    14:00 +21°C° 0.5 mm 4 m/S 731 mmHg 66%
    15:00 +20°C° 0.4 mm 4 m/S 731 mmHg 67%
    16:00 +20°C° 0.4 mm 5 m/S 731 mmHg 69%
    17:00 +20°C° 0.4 mm 5 m/S 730 mmHg 71%
    18:00 +17°C° 0.1 mm 5 m/S 730 mmHg 76%
    19:00 +17°C° 0.1 mm 4 m/S 730 mmHg 81%
    20:00 +14°C° 0.1 mm 3 m/S 730 mmHg 86%
    21:00 +14°C° 0 mm 3 m/S 730 mmHg 88%
    22:00 +13°C° 0 mm 3 m/S 731 mmHg 89%
    23:00 +12°C° 0 mm 3 m/S 731 mmHg 91%

    übermorgen, 18 Juli, Donnerstag

    Zeit Temperatur Niederschläge Wind Luftdruck Luftfeuchtigkeit
    00:00 +12°C° 0 mm 3 m/S 731 mmHg 92%
    01:00 +11°C° 0 mm 3 m/S 731 mmHg 92%
    02:00 +11°C° 0 mm 3 m/S 731 mmHg 93%
    03:00 +11°C° 0 mm 3 m/S 731 mmHg 94%
    04:00 +11°C° 0 mm 3 m/S 731 mmHg 95%
    05:00 +10°C° 0 mm 3 m/S 731 mmHg 95%
    06:00 +12°C° 0 mm 3 m/S 731 mmHg 89%
    07:00 +14°C° 0 mm 4 m/S 732 mmHg 83%
    08:00 +15°C° 0 mm 4 m/S 732 mmHg 77%
    09:00 +17°C° 0 mm 5 m/S 732 mmHg 72%
    10:00 +19°C° 0 mm 5 m/S 732 mmHg 67%
    11:00 +20°C° 0 mm 6 m/S 732 mmHg 61%
    12:00 +20°C° 0.1 mm 5 m/S 732 mmHg 61%
    13:00 +21°C° 0.1 mm 5 m/S 732 mmHg 61%
    14:00 +21°C° 0.1 mm 5 m/S 732 mmHg 61%
    15:00 +21°C° 0.1 mm 5 m/S 733 mmHg 63%
    16:00 +21°C° 0.1 mm 5 m/S 733 mmHg 65%
    17:00 +21°C° 0.1 mm 5 m/S 733 mmHg 68%
    18:00 +19°C° 0.1 mm 4 m/S 733 mmHg 74%
    19:00 +18°C° 0.1 mm 3 m/S 733 mmHg 79%
    20:00 +16°C° 0.1 mm 3 m/S 733 mmHg 85%
    21:00 +16°C° 0 mm 3 m/S 733 mmHg 87%
    22:00 +14°C° 0 mm 3 m/S 733 mmHg 89%
    23:00 +13°C° 0 mm 3 m/S 734 mmHg 91%

    19 Juli, Freitag

    Zeit Temperatur Niederschläge Wind Luftdruck Luftfeuchtigkeit
    00:00 +13°C° 0 mm 3 m/S 734 mmHg 92%
    01:00 +13°C° 0 mm 3 m/S 734 mmHg 93%
    02:00 +13°C° 0 mm 3 m/S 734 mmHg 94%
    03:00 +12°C° 0 mm 3 m/S 734 mmHg 94%
    04:00 +12°C° 0 mm 3 m/S 734 mmHg 94%
    05:00 +12°C° 0 mm 3 m/S 734 mmHg 94%
    06:00 +14°C° 0 mm 3 m/S 735 mmHg 89%
    07:00 +17°C° 0 mm 3 m/S 735 mmHg 84%
    08:00 +18°C° 0 mm 3 m/S 735 mmHg 79%
    09:00 +20°C° 0 mm 3 m/S 736 mmHg 73%
    10:00 +21°C° 0 mm 3 m/S 736 mmHg 67%
    11:00 +24°C° 0 mm 3 m/S 736 mmHg 61%
    12:00 +24°C° 0 mm 3 m/S 736 mmHg 58%
    13:00 +25°C° 0 mm 3 m/S 736 mmHg 55%
    14:00 +25°C° 0 mm 3 m/S 736 mmHg 52%
    15:00 +25°C° 0 mm 2 m/S 736 mmHg 54%
    16:00 +25°C° 0 mm 2 m/S 736 mmHg 56%
    17:00 +25°C° 0 mm 2 m/S 736 mmHg 58%
    18:00 +23°C° 0 mm 2 m/S 736 mmHg 63%
    19:00 +21°C° 0 mm 1 m/S 736 mmHg 69%
    20:00 +20°C° 0 mm 1 m/S 736 mmHg 75%
    21:00 +19°C° 0 mm 1 m/S 736 mmHg 77%
    22:00 +18°C° 0 mm 1 m/S 736 mmHg 79%
    23:00 +16°C° 0 mm 0 m/S 736 mmHg 81%

    20 Juli, Samstag

    Zeit Temperatur Niederschläge Wind Luftdruck Luftfeuchtigkeit
    00:00 +16°C° 0 mm 1 m/S 736 mmHg 82%
    01:00 +16°C° 0 mm 1 m/S 736 mmHg 82%
    02:00 +16°C° 0 mm 1 m/S 736 mmHg 82%
    03:00 +16°C° 0 mm 1 m/S 736 mmHg 82%
    04:00 +16°C° 0 mm 1 m/S 736 mmHg 82%
    05:00 +16°C° 0 mm 1 m/S 736 mmHg 81%
    06:00 +18°C° 0 mm 2 m/S 736 mmHg 78%
    07:00 +20°C° 0 mm 2 m/S 736 mmHg 75%
    08:00 +21°C° 0 mm 2 m/S 736 mmHg 71%
    09:00 +24°C° 0.9 mm 2 m/S 737 mmHg 69%
    10:00 +25°C° 0.9 mm 2 m/S 737 mmHg 66%
    11:00 +26°C° 0.9 mm 2 m/S 737 mmHg 63%
    12:00 +26°C° 0.8 mm 2 m/S 737 mmHg 64%
    13:00 +25°C° 0.8 mm 2 m/S 736 mmHg 65%
    14:00 +25°C° 0.8 mm 2 m/S 736 mmHg 66%
    15:00 +25°C° 0.5 mm 2 m/S 736 mmHg 68%
    16:00 +24°C° 0.5 mm 2 m/S 736 mmHg 70%
    17:00 +24°C° 0.5 mm 1 m/S 736 mmHg 73%
    18:00 +23°C° 0.1 mm 2 m/S 736 mmHg 76%
    19:00 +21°C° 0.1 mm 2 m/S 736 mmHg 78%
    20:00 +20°C° 0.1 mm 2 m/S 736 mmHg 81%
    21:00 +19°C° 0 mm 2 m/S 736 mmHg 83%
    22:00 +18°C° 0 mm 2 m/S 736 mmHg 85%
    23:00 +19°C° 0 mm 1 m/S 737 mmHg 86%

    21 Juli, Sonntag

    Zeit Temperatur Niederschläge Wind Luftdruck Luftfeuchtigkeit
    00:00 +18°C° 0 mm 1 m/S 736 mmHg 87%
    01:00 +18°C° 0 mm 1 m/S 736 mmHg 87%
    02:00 +18°C° 0 mm 1 m/S 736 mmHg 88%
    03:00 +18°C° 0 mm 1 m/S 736 mmHg 88%
    04:00 +16°C° 0 mm 1 m/S 736 mmHg 89%
    05:00 +16°C° 0 mm 1 m/S 736 mmHg 89%
    06:00 +19°C° 0 mm 1 m/S 737 mmHg 84%
    07:00 +21°C° 0 mm 1 m/S 737 mmHg 79%
    08:00 +22°C° 0 mm 1 m/S 737 mmHg 75%
    09:00 +24°C° 0 mm 1 m/S 737 mmHg 70%
    10:00 +25°C° 0 mm 1 m/S 737 mmHg 65%
    11:00 +26°C° 0 mm 1 m/S 738 mmHg 60%
    12:00 +27°C° 0 mm 2 m/S 737 mmHg 58%
    13:00 +27°C° 0 mm 2 m/S 737 mmHg 57%
    14:00 +28°C° 0 mm 2 m/S 737 mmHg 55%
    15:00 +28°C° 0 mm 2 m/S 737 mmHg 56%
    16:00 +28°C° 0 mm 2 m/S 737 mmHg 56%
    17:00 +28°C° 0 mm 2 m/S 737 mmHg 56%
    18:00 +26°C° 0 mm 2 m/S 737 mmHg 62%
    19:00 +24°C° 0 mm 1 m/S 737 mmHg 68%
    20:00 +22°C° 0 mm 1 m/S 737 mmHg 74%
    21:00 +22°C° 0 mm 1 m/S 737 mmHg 76%
    22:00 +21°C° 0 mm 1 m/S 737 mmHg 78%
    23:00 +19°C° 0 mm 0 m/S 737 mmHg 80%
    Mehr zeigen